Погода в Бычках

Россия / Орловская область     52°31′27″N   35°17′07″E
темп.,
°C
ветер,
м/с
пор.,
м/с
влажн.,
%
обл.,
%
осадки,
мм/ч
давл.,
гПа
погр.,
м
7 мая, пт
пт700:00+7з3589100 0.1 101181
03:00+5зсз3387100 0.1 101244
06:00+5з2389100 0.0 101349
09:00+10зюз34645 0.0 1014563
12:00+13юз45445 0.0 10142012
15:00+14ююз5648100 0.0 10132193
18:00+13ю5861100 0.1 1012524
21:00+9ююв5128086 0.1 1011232
8 мая, сб
сб800:00+9ююв71583100 1.2 1010573
03:00+9ююв81695100 5.6 1008799
06:00+9ю91690100 3.0 1005749
09:00+10ю71497100 4.5 1004771
12:00+10юз4796100 4.6 1004551
15:00+11зюз5787100 4.8 1005589
18:00+7зюз8129391 0.7 1006605
21:00+5зюз81295100 0.9 1007830
9 мая, вс
вс900:00+3з111997100 0.7 1009975
03:00+4зсз91692100 1.3 10111098
06:00+4зсз71289100 0.0 1014795
09:00+6сз8107894 0.0 10161010
12:00+9ссз8106285 0.1 10181849
15:00+10ссз7105287 0.2 10202187
18:00+10ссз610585 0.1 10211499
21:00+5сз47750 0.1 1024111
10 мая, пн
пн1000:00+4сз48780 0.0 1026116
03:00+3ссз49795 0.0 1027138
06:00+3с411765 0.0 1028199
09:00+9ссв58628 0.0 1028540
12:00+13ссв710505 0.0 10281448
15:00+14ссв810495 0.0 10271553
18:00+13ссв711610 0.0 10261180
21:00+8ссв513784 0.0 1027293
11 мая, вт
вт1100:00+7св515745 0.0 1027348
03:00+6ссв513775 0.0 1026274
06:00+6св614830 0.0 1026330
09:00+11св711750 0.0 1025485
12:00+16всв810691 0.0 1024874
15:00+18всв7106790 0.0 10231354
18:00+16в6108391 0.7 1024780
21:00+11вюв3595100 0.9 102598